[[{"header":{"parameterUnit":"m.s-1","parameterCategory":1,"la1":30.2991,"la2":30.254,"lo1":-89.0895,"lo2":-89.0444,"dy":0.0017,"dx":0.0017,"nx":28,"ny":28,"refTime":"2024-05-16T21:00:00:Z","depth":0,"parameterNumber":2,"parameterNumberName":"U-component_of_WINDS"},"data":[0,0,0,0,0,0,0,0,0,0,0,0,0,0,0,0,0,0,0,0,0,0,0,0,0,0,0,0,0,0,0,0,0,0,0,0,0,0,0,0,0,0,0,0,0,0,0,0,0,0,0,0,0,0,0,0,0,0,-1.6877,-1.6876,0,-1.6723,-1.6722,-1.672,-1.6553,-1.6551,-1.6548,-1.6546,-1.6395,-1.6394,-1.6392,0,0,0,0,0,0,0,0,0,0,0,0,0,-1.7036,-1.7034,-1.6878,-1.6876,-1.6874,-1.6724,-1.6722,-1.672,-1.6554,-1.6551,-1.6548,-1.6545,-1.6396,-1.6394,-1.6392,0,0,0,0,0,0,0,0,0,0,0,0,0,-1.6934,-1.7034,-1.6878,-1.6773,-1.6762,-1.6724,-1.6722,-1.6719,-1.6554,-1.6551,-1.6547,-1.6544,-1.6397,-1.6394,-1.6391,-1.6447,0,0,-1.6383,-1.6382,0,0,0,0,0,0,0,0,-1.694,-1.6928,-1.679,-1.678,-1.6768,-1.6654,-1.6722,-1.6628,-1.6555,-1.6633,-1.6546,-1.6542,-1.6485,-1.6475,-1.6454,-1.644,-1.6433,-1.6383,-1.6381,-1.638,-1.6379,0,0,0,0,0,0,0,-1.6947,-1.6934,-1.6817,-1.6788,-1.6775,-1.6736,-1.6717,-1.6704,-1.6581,-1.6626,-1.6614,-1.6597,-1.6478,-1.6457,-1.6449,-1.6431,-1.6383,-1.6381,-1.6379,-1.6378,-1.6459,-1.6463,0,0,0,0,0,0,-1.6969,-1.6941,-1.6822,-1.6812,-1.6846,-1.6736,-1.6715,-1.6694,-1.6581,-1.656,-1.6601,-1.659,-1.6463,-1.6452,-1.6443,-1.6503,-1.638,-1.6378,-1.6376,-1.6456,-1.646,-1.6464,0,0,0,0,0,0,-1.6973,-1.696,-1.6828,-1.6873,-1.6853,-1.6737,-1.6715,-1.6693,-1.6671,-1.6561,-1.654,-1.6601,-1.646,-1.6447,-1.6448,-1.6495,-1.6376,-1.6374,-1.6451,-1.6457,-1.6462,-1.6622,0,0,0,0,0,0,-1.6978,-1.6962,-1.698,-1.6875,-1.6851,-1.6833,-1.6717,-1.6693,-1.6666,-1.6651,-1.6556,-1.6537,-1.6456,-1.6452,-1.6445,-1.6489,-1.6372,-1.6446,-1.6454,-1.646,-1.6612,-1.6633,-1.665,0,0,0,0,0,-1.6985,-1.7032,-1.6982,-1.6968,-1.6871,-1.6836,-1.6823,-1.6727,-1.6671,-1.6689,-1.6619,-1.654,-1.6491,-1.6454,-1.6444,-1.6489,-1.6443,-1.6452,-1.646,-1.6604,-1.6629,-1.665,0,0,0,0,0,0,-1.7148,-1.7016,-1.6959,-1.6973,-1.6917,-1.6808,-1.6828,-1.6756,-1.6716,-1.6703,-1.6588,-1.6568,-1.6584,-1.6536,-1.6497,-1.6538,-1.6456,-1.6463,-1.6569,-1.6592,-1.661,-1.6622,-1.637,0,0,0,0,0,-1.7185,-1.7165,-1.7052,-1.7076,-1.705,-1.6945,-1.6926,-1.6857,-1.6795,-1.6771,-1.67,-1.6645,-1.6617,-1.6602,-1.657,-1.6605,-1.6584,-1.6631,-1.665,-1.6666,-1.6674,-1.6692,-1.6713,-1.6492,-1.6492,-1.6492,0,0,-1.7262,-1.7188,-1.7183,-1.7107,-1.7055,-1.704,-1.6926,-1.6914,-1.6902,-1.6769,-1.6765,-1.6713,-1.6644,-1.6663,-1.6668,-1.6624,-1.673,-1.6677,-1.6691,-1.6689,-1.6703,-1.6724,-1.6743,-1.6498,-1.6497,-1.6496,0,0,-1.7396,-1.7337,-1.7351,-1.7302,-1.7224,-1.7154,-1.7158,-1.706,-1.702,-1.7014,-1.6915,-1.6901,-1.6855,-1.6811,-1.6783,-1.6904,-1.6831,-1.6897,-1.6997,-1.7016,-1.7033,-1.7048,-1.7094,-1.7112,-1.6905,-1.6905,-1.6905,0,-1.7502,-1.7473,-1.7368,-1.7363,-1.7334,-1.7212,-1.7228,-1.7185,-1.7103,-1.7088,-1.7039,-1.6981,-1.6925,-1.6934,-1.6964,-1.6944,-1.6948,-1.6907,-1.7039,-1.7053,-1.7065,-1.7108,-1.7125,-1.6914,-1.6913,-1.6912,-1.6911,0,-1.761,-1.7592,-1.7613,-1.7535,-1.7509,-1.7515,-1.7413,-1.74,-1.7334,-1.7271,-1.7269,-1.7199,-1.7152,-1.7149,-1.7085,-1.715,-1.7125,-1.706,-1.6974,-1.7097,-1.7135,-1.715,-1.6926,-1.6923,-1.6921,-1.6919,0,0,-1.784,-1.7706,-1.7715,-1.768,-1.7587,-1.7573,-1.7575,-1.7528,-1.752,-1.7468,-1.7469,-1.7435,-1.7374,-1.7343,-1.7273,-1.729,-1.7394,-1.7222,-1.7219,-1.7259,-1.7465,-1.7516,-1.7537,-1.7345,-1.7347,-1.7349,-1.7472,0,-1.7959,-1.7952,-1.7859,-1.788,-1.7864,-1.7749,-1.7752,-1.7697,-1.7639,-1.7619,-1.7555,-1.7533,-1.7453,-1.7434,-1.7445,-1.7379,-1.7434,-1.7369,-1.7348,-1.7348,-1.737,-1.7556,-1.7609,-1.7728,-1.7486,-1.7488,-1.749,0,-1.8095,-1.8051,-1.8071,-1.798,-1.797,-1.7974,-1.7925,-1.7906,-1.7844,-1.78,-1.7767,-1.7688,-1.7687,-1.7607,-1.7606,-1.7564,-1.755,-1.7517,-1.7519,-1.7515,-1.7427,-1.7559,-1.7763,-1.7782,-1.7512,-1.751,-1.7508,0,-1.8265,-1.821,-1.8215,-1.8188,-1.8083,-1.8088,-1.8045,-1.7978,-1.7957,-1.7916,-1.7902,-1.7862,-1.784,-1.7813,-1.7727,-1.7676,-1.7738,-1.7649,-1.7705,-1.7707,-1.7723,-1.7724,-1.7931,-1.7712,-1.7712,-1.7712,-1.7711,0,-1.8408,-1.8425,-1.829,-1.8294,-1.8311,-1.8206,-1.8227,-1.8172,-1.8115,-1.8109,-1.8007,-1.8004,-1.789,-1.7875,-1.7808,-1.782,-1.7811,-1.7778,-1.7761,-1.7788,-1.7793,-1.7778,-1.7769,-1.7716,-1.7715,-1.7714,-1.7714,0,-1.86,-1.851,-1.8508,-1.8409,-1.8384,-1.8402,-1.8318,-1.8319,-1.8255,-1.8248,-1.8241,-1.8141,-1.8119,-1.803,-1.7986,-1.7942,-1.7977,-1.7941,-1.7997,-1.7986,-1.8047,-1.8044,-1.8253,-1.8277,-1.8043,-1.8045,-1.8047,0,-1.8697,-1.8708,-1.861,-1.8597,-1.8558,-1.8539,-1.8517,-1.8416,-1.8398,-1.8329,-1.834,-1.8309,-1.8278,-1.8248,-1.8174,-1.8141,-1.8105,-1.8181,-1.81,-1.8128,-1.8109,-1.8111,-1.8113,-1.8199,-1.8202,-1.8205,-1.8207,0,-1.8881,-1.8837,-1.8808,-1.8765,-1.8742,-1.8703,-1.8659,-1.8655,-1.8542,-1.8528,-1.8503,-1.848,-1.8435,-1.8407,-1.8363,-1.8321,-1.8247,-1.8233,-1.8244,-1.8273,-1.8307,-1.8292,-1.8047,-1.8229,-1.8226,-1.8225,-1.8224,-1.8223,-1.903,-1.9035,-1.8968,-1.894,-1.8896,-1.8858,-1.8855,-1.8791,-1.8768,-1.8722,-1.8665,-1.8648,-1.8589,-1.8521,-1.8486,-1.8474,-1.8432,-1.8448,-1.8452,-1.8458,-1.8473,-1.8308,-1.8465,-1.8464,-1.8463,-1.8463,-1.8462,0,-1.9211,-1.9162,-1.9138,-1.9079,-1.9059,-1.8989,-1.8937,-1.8926,-1.8912,-1.8862,-1.8834,-1.8808,-1.8781,-1.8706,-1.8672,-1.8677,-1.8643,-1.8672,-1.8672,-1.8664,-1.8511,-1.8505,-1.8701,-1.8701,-1.8701,-1.8701,-1.8701,-1.8701,-1.9303,-1.9309,-1.9258,-1.9243,-1.9194,-1.9176,-1.9153,-1.9119,-1.9078,-1.9053,-1.903,-1.898,-1.8921,-1.8883,-1.8857,-1.8835,-1.8829,-1.887,-1.8839,-1.8697,-1.8675,-1.8653,-1.8647,-1.8869,-1.887,-1.8993,-1.8994,-1.8995]},{"header":{"parameterUnit":"m.s-1","parameterCategory":1,"la1":30.2991,"la2":30.254,"lo1":-89.0895,"lo2":-89.0444,"dy":0.0017,"dx":0.0017,"nx":28,"ny":28,"refTime":"2024-05-16T21:00:00:Z","depth":0,"parameterNumber":3,"parameterNumberName":"V-component_of_WINDS"},"data":[0,0,0,0,0,0,0,0,0,0,0,0,0,0,0,0,0,0,0,0,0,0,0,0,0,0,0,0,0,0,0,0,0,0,0,0,0,0,0,0,0,0,0,0,0,0,0,0,0,0,0,0,0,0,0,0,0,0,0.8173,0.8173,0,0.8116,0.8115,0.8114,0.8148,0.8149,0.8151,0.8153,0.8088,0.8085,0.8082,0,0,0,0,0,0,0,0,0,0,0,0,0,0.831,0.8307,0.8174,0.8173,0.8172,0.8116,0.8115,0.8114,0.8147,0.8149,0.8151,0.8153,0.8089,0.8086,0.8082,0,0,0,0,0,0,0,0,0,0,0,0,0,0.8251,0.8306,0.8174,0.8182,0.8182,0.8116,0.8115,0.8114,0.8147,0.815,0.8152,0.8154,0.8091,0.8086,0.8081,0.8002,0,0,0.8066,0.8064,0,0,0,0,0,0,0,0,0.8254,0.8246,0.8182,0.8181,0.8181,0.8142,0.814,0.8076,0.8146,0.816,0.8153,0.8155,0.8104,0.8098,0.8082,0.7999,0.7996,0.8066,0.8063,0.8061,0.806,0,0,0,0,0,0,0,0.8258,0.8249,0.815,0.8181,0.818,0.8188,0.8182,0.8128,0.8119,0.8159,0.8162,0.8154,0.8104,0.8086,0.808,0.7995,0.8066,0.8062,0.8059,0.8057,0.7846,0.7844,0,0,0,0,0,0,0.8262,0.8252,0.8152,0.8149,0.8225,0.8183,0.8177,0.8152,0.8119,0.8117,0.8152,0.8156,0.8093,0.8086,0.8078,0.7985,0.8061,0.8056,0.8054,0.7849,0.7846,0.7843,0,0,0,0,0,0,0.8265,0.8253,0.8155,0.8201,0.8189,0.8178,0.815,0.8149,0.8131,0.8114,0.8113,0.8136,0.8095,0.8085,0.8021,0.7983,0.8054,0.805,0.7852,0.7848,0.7844,0.7796,0,0,0,0,0,0,0.8269,0.8254,0.8224,0.82,0.8186,0.81,0.8147,0.8146,0.8124,0.8128,0.8098,0.8096,0.8096,0.8028,0.8017,0.7978,0.8046,0.7855,0.785,0.7845,0.7801,0.7791,0.7782,0,0,0,0,0,0.8274,0.8212,0.8223,0.8211,0.8149,0.8097,0.8089,0.8092,0.812,0.809,0.808,0.8097,0.7989,0.8022,0.8008,0.7967,0.7858,0.7852,0.7846,0.7805,0.7793,0.7783,0,0,0,0,0,0,0.823,0.8209,0.8221,0.8149,0.8125,0.8103,0.8065,0.8079,0.8045,0.8051,0.8054,0.8047,0.7981,0.7968,0.8005,0.789,0.7928,0.7919,0.7901,0.7889,0.788,0.7885,0.8042,0,0,0,0,0,0.8212,0.8173,0.8156,0.8095,0.8082,0.8076,0.8053,0.8058,0.8032,0.8022,0.8006,0.798,0.794,0.7914,0.7876,0.7799,0.7794,0.7764,0.7755,0.7747,0.774,0.77,0.7687,0.7823,0.7823,0.7823,0,0,0.8175,0.8158,0.8133,0.8085,0.8067,0.8026,0.8067,0.8021,0.799,0.8014,0.7954,0.7942,0.7912,0.7842,0.7811,0.7829,0.7701,0.774,0.7734,0.773,0.7692,0.7679,0.7668,0.7819,0.7819,0.782,0,0,0.8086,0.8069,0.8017,0.7999,0.7972,0.7968,0.7955,0.7932,0.7925,0.7865,0.7883,0.7846,0.7777,0.7756,0.7736,0.7641,0.7656,0.7628,0.7579,0.754,0.753,0.752,0.7488,0.7476,0.7621,0.7621,0.762,0,0.8043,0.7983,0.7988,0.7942,0.7921,0.7943,0.789,0.7871,0.7832,0.7817,0.7838,0.7754,0.7735,0.7661,0.7639,0.7621,0.7607,0.7632,0.7531,0.7521,0.7513,0.7482,0.7469,0.7618,0.7618,0.7618,0.7618,0,0.7931,0.7889,0.785,0.7815,0.7789,0.7739,0.7737,0.771,0.7717,0.7711,0.765,0.7629,0.7588,0.7571,0.7576,0.7498,0.751,0.7531,0.7569,0.7497,0.7468,0.7456,0.7613,0.7614,0.7615,0.7616,0,0,0.7813,0.7783,0.7769,0.7754,0.7726,0.7693,0.7644,0.7606,0.7584,0.7556,0.7516,0.7458,0.7478,0.7455,0.7458,0.7423,0.7351,0.7449,0.7448,0.7433,0.7265,0.7251,0.7237,0.7361,0.7359,0.7357,0.7269,0,0.7724,0.7642,0.7646,0.7568,0.753,0.755,0.7508,0.7486,0.7479,0.7444,0.7436,0.7396,0.7424,0.7411,0.7378,0.7367,0.7318,0.7373,0.7323,0.7322,0.7332,0.7222,0.7206,0.7124,0.7257,0.7255,0.7254,0,0.7609,0.7581,0.7499,0.7479,0.7463,0.7425,0.7392,0.7358,0.7334,0.7331,0.7307,0.7316,0.7267,0.7306,0.7238,0.7275,0.7255,0.7247,0.7244,0.724,0.7284,0.7216,0.7097,0.7086,0.7235,0.7237,0.7238,0,0.7534,0.7474,0.7418,0.7404,0.7378,0.7352,0.7339,0.7317,0.7295,0.7265,0.725,0.7214,0.7194,0.7166,0.7165,0.7193,0.7097,0.7135,0.7093,0.7093,0.7073,0.7074,0.695,0.7057,0.7057,0.7058,0.7058,0,0.7435,0.7385,0.7385,0.735,0.7295,0.73,0.7244,0.7234,0.7215,0.7179,0.7193,0.7158,0.7159,0.7123,0.7122,0.7067,0.7057,0.7053,0.7054,0.7053,0.7054,0.704,0.7047,0.7054,0.7055,0.7056,0.7056,0,0.7342,0.7339,0.728,0.7261,0.7255,0.7215,0.7198,0.7165,0.716,0.7114,0.7104,0.7095,0.7054,0.7051,0.7002,0.7002,0.6935,0.6941,0.6944,0.6946,0.6905,0.6909,0.6769,0.6751,0.6868,0.6867,0.6866,0,0.7279,0.7242,0.7219,0.7197,0.7184,0.7147,0.7125,0.7128,0.7104,0.7074,0.7044,0.7006,0.6975,0.6909,0.6898,0.6861,0.6867,0.682,0.6862,0.6862,0.6868,0.6871,0.6868,0.6813,0.6811,0.681,0.6809,0,0.717,0.7171,0.7139,0.7107,0.708,0.7054,0.703,0.7011,0.7011,0.6983,0.6943,0.6919,0.6872,0.6833,0.6798,0.6784,0.6797,0.6797,0.6785,0.6784,0.6789,0.6787,0.6924,0.68,0.6801,0.6802,0.6802,0.6802,0.7091,0.7059,0.7039,0.7003,0.6986,0.6963,0.6932,0.6924,0.6891,0.6854,0.6857,0.6812,0.6789,0.6744,0.6727,0.6692,0.6708,0.6691,0.6687,0.6683,0.6679,0.6793,0.6685,0.6685,0.6686,0.6686,0.6686,0,0.6984,0.6972,0.6939,0.6906,0.6878,0.6894,0.6868,0.6843,0.6805,0.6783,0.6753,0.6707,0.667,0.6656,0.662,0.6594,0.6599,0.6585,0.6587,0.6584,0.6667,0.6681,0.6581,0.6581,0.6581,0.6581,0.6581,0.6581,0.6925,0.6872,0.6871,0.681,0.6798,0.6756,0.674,0.672,0.6703,0.6651,0.6621,0.6613,0.6594,0.6557,0.6524,0.652,0.6507,0.649,0.6489,0.6567,0.6578,0.6588,0.6602,0.6487,0.6487,0.641,0.6409,0.6409]}]]